Location: New Mesquite
(33.1168°N, 96.4336°W)
Time: 13:55:49
(UTC+00:00)

Meteor 1-27 Rocket - Visible Passes

Search period start: 03 July 2022 00:00
Search period end: 13 July 2022 00:00
Orbit: 830 x 909 km, 81.3° (Epoch: 02 July)

Date Brightness Start Highest point End Pass type
(mag) Time Alt. Az. Time Alt. Az. Time Alt. Az.
03 Jul 6.3 07:41:06 10° NE 07:42:44 11° ENE 07:44:22 10° E visible
03 Jul 3.6 09:21:03 10° NNW 09:26:37 72° W 09:29:31 29° S visible
04 Jul 6.3 07:34:35 10° NE 07:36:28 12° ENE 07:38:20 10° E visible
04 Jul 3.6 09:14:46 10° NNW 09:20:19 69° W 09:22:34 36° SSW visible
05 Jul 6.2 07:28:05 10° NE 07:30:11 12° ENE 07:32:16 10° E visible
05 Jul 3.6 09:08:29 10° NNW 09:14:00 67° W 09:15:40 44° SSW visible
06 Jul 6.2 07:21:37 10° NE 07:23:54 12° ENE 07:26:11 10° E visible
06 Jul 3.6 09:02:12 10° NNW 09:07:43 65° W 09:08:50 52° SSW visible
07 Jul 6.1 07:15:10 10° NE 07:17:38 13° ENE 07:19:41 11° E visible
07 Jul 3.6 08:55:55 10° NNW 09:01:24 63° W 09:02:03 58° SW visible
08 Jul 6.1 07:08:44 10° NE 07:11:21 13° ENE 07:12:57 12° E visible
08 Jul 3.6 08:49:38 10° NNW 08:55:06 60° W 08:55:19 60° WSW visible
09 Jul 6.0 07:02:18 10° NE 07:05:04 14° ENE 07:06:15 13° E visible
09 Jul 3.7 08:43:21 10° NNW 08:48:37 58° W 08:48:37 58° W visible
10 Jul 6.0 06:55:53 10° NE 06:58:47 14° ENE 06:59:34 14° E visible
10 Jul 3.9 08:37:04 10° NNW 08:41:58 54° WNW 08:41:58 54° WNW visible
11 Jul 5.9 06:49:28 10° NE 06:52:31 15° ENE 06:52:57 15° ENE visible
11 Jul 4.1 08:30:47 10° NNW 08:35:20 49° WNW 08:35:20 49° WNW visible
12 Jul 5.9 06:43:04 10° NE 06:46:14 15° ENE 06:46:21 15° ENE visible
12 Jul 4.3 08:24:30 10° NNW 08:28:45 45° NW 08:28:45 45° NW visible
